星链-5631 (STARLINK-5631 )

导读

STARLINK-5631是美国太空探索技术公司(SpaceX)星链计划的卫星,于2023年1月26日发射升空。作为星链星座的组成部分,它主要为全球提供高速互联网服务,尤其服务偏远地区与网络基础设施薄弱区域,进一步扩充星链低轨星座规模,助力SpaceX实现全球卫星互联网覆盖的目标。

基本信息
目录编号:
55346
目录名称:
STARLINK-5631
国际标识:
2023-013R
轨道中心:
EARTH
卫星名称:
星链-5631
卫星全名:
星链-5631 (STARLINK-5631 )
卫星状态:
在轨 (已飞行1325 天)
发射日期:
2023-01-26 UTC
国别 :
美国 (US)
星等 :
--
该卫星已列入 空间交会检测服务 Space Conjunction Data Service (SCDS) ,当前飞行风险评估等级: 无高风险
轨道信息
数据来源 国际轨道数据
星历时间: 2026-09-12T14:42:28+0800
8小时前
查看轨道信息
半长轴: 6861.206km
偏心率: 0.0001759
轨道倾角: 43.005°
近地点辐角 262.055°
升交点赤经 329.325°
平近点角 98.011°
近地点: 481.862km
远地点: 484.276km
周期: 94.267分钟
每日圈数: 15.275734
详细信息
固有亮度:
5
最大亮度:
2.5
卫星平台:
Starlink v1.5
覆盖范围:
全球
运营商:
太空探索技术公司
运营商所在国:
美国
制造商(研发单位):
太空探索技术公司
制造商所在国:
美国
使用方式:
暂无
卫星简介
星链(Starlink)计划是由太空探索技术公司(SpaceX)提出的一个巨型低轨卫星互联网星座项目,计划在2019年至2024年间在太空搭建由约1.2万颗卫星组成的“星链”网络,其中1584颗将部署在地球上空550千米处的近地轨道,并从2020年开始工作。该卫星仍在工作。
2D轨道图
3D轨道图
轨道高度分析图
轨道倾角分析图
轨道综合分析图
查看轨道综合分析图
交会数据列表
事件ID 空间交会对象 最接近时刻(TCA) 交会距离 交会风险概率(CRP) 交会风险指数(CRI) 操作
CDM_260912-091605-534606-453122
OBJECT D (64531)
2026-09-12T
09:16:04+0000
1.361 km
极远距离
6.267099E-6 低风险 0.51
CDM_260913-135101-469905-534621
2026-09-13T
13:51:11+0000
1.373 km
极远距离
5.285288E-6 低风险 0.49
CDM_260915-035205-534605-880721
2026-09-15T
03:52:32+0000
1.995 km
极远距离
2.210012E-6 低风险 0.42
与全量物体交会距离演化趋势
与全量物体交会风险概率演化趋势